| time (UTC) | temp C | wind direction | speed KPH | gust KPH | rain 1hr cm | rain 24hr cm | rain mn cm | humidity % | barometer mb |
| 20260901233103 | 25 | 6 | 0.0 | 0.0 | 0.00 | 0.03 | 0.03 | 75 | 1017.8 |
| 20260901232559 | 26 | 6 | 0.0 | 0.0 | 0.00 | 0.03 | 0.03 | 75 | 1017.9 |
| 20260901232056 | 26 | 6 | 0.0 | 1.6 | 0.00 | 0.03 | 0.03 | 73 | 1017.7 |
| 20260901231559 | 26 | 6 | 0.0 | 1.6 | 0.00 | 0.03 | 0.03 | 72 | 1017.7 |
| 20260901231055 | 26 | 5 | 0.0 | 3.2 | 0.00 | 0.03 | 0.03 | 69 | 1017.8 |
| 20260901230555 | 26 | 19 | 0.0 | 3.2 | 0.00 | 0.03 | 0.03 | 69 | 1017.9 |
| 20260901230057 | 26 | 335 | 0.0 | 3.2 | 0.00 | 0.03 | 0.03 | 69 | 1018.0 |
| 20260901225556 | 26 | 4 | 0.0 | 4.8 | 0.00 | 0.05 | 0.03 | 68 | 1017.9 |
| 20260901225055 | 26 | 346 | 0.0 | 6.4 | 0.00 | 0.05 | 0.03 | 68 | 1017.9 |
| 20260901224557 | 26 | 349 | 1.6 | 6.4 | 0.00 | 0.05 | 0.03 | 67 | 1017.9 |
| 20260901224055 | 26 | 18 | 0.0 | 4.8 | 0.00 | 0.05 | 0.03 | 68 | 1017.9 |
| 20260901223555 | 26 | 39 | 0.0 | 6.4 | 0.00 | 0.05 | 0.03 | 67 | 1017.8 |
| 20260901223055 | 26 | 349 | 1.6 | 8.0 | 0.00 | 0.05 | 0.03 | 66 | 1017.8 |
| 20260901222555 | 27 | 23 | 1.6 | 4.8 | 0.00 | 0.05 | 0.03 | 65 | 1017.8 |
| 20260901222054 | 27 | 19 | 0.0 | 8.0 | 0.00 | 0.05 | 0.03 | 66 | 1017.8 |
| 20260901221617 | 27 | 335 | 1.6 | 8.0 | 0.00 | 0.05 | 0.03 | 64 | 1017.7 |
| 20260901221054 | 27 | 15 | 1.6 | 6.4 | 0.00 | 0.05 | 0.03 | 63 | 1017.7 |
| 20260901220553 | 28 | 11 | 0.0 | 8.0 | 0.00 | 0.05 | 0.03 | 64 | 1017.7 |
| 20260901220100 | 28 | 18 | 1.6 | 8.0 | 0.00 | 0.05 | 0.03 | 61 | 1017.7 |
| 20260901215552 | 28 | 354 | 0.0 | 1.6 | 0.00 | 0.05 | 0.03 | 66 | 1017.7 |
| 20260901215057 | 27 | 354 | 0.0 | 9.7 | 0.00 | 0.05 | 0.03 | 65 | 1017.7 |
| 20260901214551 | 27 | 354 | 1.6 | 9.7 | 0.00 | 0.05 | 0.03 | 63 | 1017.8 |
| 20260901214050 | 27 | 347 | 0.0 | 11.3 | 0.00 | 0.05 | 0.03 | 62 | 1017.8 |
| 20260901213551 | 27 | 306 | 4.8 | 11.3 | 0.00 | 0.05 | 0.03 | 59 | 1017.8 |
| 20260901213107 | 27 | 350 | 1.6 | 8.0 | 0.00 | 0.05 | 0.03 | 59 | 1017.9 |
| 20260901212551 | 27 | 19 | 3.2 | 8.0 | 0.00 | 0.05 | 0.03 | 58 | 1017.8 |
| 20260901212050 | 27 | 9 | 0.0 | 8.0 | 0.00 | 0.05 | 0.03 | 58 | 1017.8 |
| 20260901211553 | 28 | 37 | 0.0 | 9.7 | 0.00 | 0.05 | 0.03 | 58 | 1017.9 |
| 20260901211049 | 28 | 20 | 1.6 | 6.4 | 0.00 | 0.05 | 0.03 | 58 | 1018.0 |
| 20260901210548 | 28 | 246 | 0.0 | 6.4 | 0.00 | 0.05 | 0.03 | 58 | 1018.0 |
| 20260901210048 | 28 | 5 | 1.6 | 14.5 | 0.00 | 0.05 | 0.03 | 59 | 1018.1 |
| 20260901205550 | 28 | 349 | 4.8 | 14.5 | 0.00 | 0.05 | 0.03 | 58 | 1018.2 |
| 20260901205049 | 28 | 22 | 3.2 | 11.3 | 0.00 | 0.05 | 0.03 | 55 | 1018.1 |
| 20260901204548 | 28 | 4 | 0.0 | 8.0 | 0.00 | 0.05 | 0.03 | 57 | 1018.1 |
| 20260901204051 | 28 | 347 | 0.0 | 6.4 | 0.00 | 0.05 | 0.03 | 59 | 1018.1 |
| 20260901203547 | 28 | 231 | 0.0 | 6.4 | 0.00 | 0.05 | 0.03 | 59 | 1018.2 |
| 20260901203058 | 28 | 350 | 0.0 | 6.4 | 0.00 | 0.05 | 0.03 | 59 | 1018.1 |
| 20260901202545 | 28 | 20 | 0.0 | 8.0 | 0.00 | 0.05 | 0.03 | 58 | 1018.0 |
| 20260901202044 | 28 | 327 | 1.6 | 8.0 | 0.00 | 0.05 | 0.03 | 56 | 1018.2 |
| 20260901201545 | 28 | 225 | 1.6 | 6.4 | 0.00 | 0.05 | 0.03 | 56 | 1018.2 |
| 20260901201044 | 28 | 341 | 0.0 | 8.0 | 0.00 | 0.05 | 0.03 | 58 | 1018.2 |
| 20260901200543 | 28 | 11 | 3.2 | 9.7 | 0.00 | 0.05 | 0.03 | 56 | 1018.3 |
| 20260901200051 | 28 | 356 | 0.0 | 9.7 | 0.00 | 0.05 | 0.03 | 56 | 1018.3 |
| 20260901195547 | 28 | 340 | 3.2 | 9.7 | 0.00 | 0.05 | 0.03 | 55 | 1018.3 |
| 20260901195042 | 28 | 26 | 0.0 | 6.4 | 0.00 | 0.05 | 0.03 | 57 | 1018.4 |
| 20260901194542 | 27 | 342 | 0.0 | 11.3 | 0.00 | 0.05 | 0.03 | 59 | 1018.4 |
| 20260901194041 | 27 | 337 | 4.8 | 11.3 | 0.00 | 0.05 | 0.03 | 59 | 1018.5 |
| 20260901193540 | 27 | 33 | 3.2 | 12.9 | 0.00 | 0.05 | 0.03 | 59 | 1018.5 |
| 20260901193056 | 27 | 23 | 4.8 | 12.9 | 0.00 | 0.05 | 0.03 | 59 | 1018.5 |
| 20260901192543 | 27 | 16 | 3.2 | 12.9 | 0.00 | 0.05 | 0.03 | 58 | 1018.6 |
| 20260901192039 | 27 | 345 | 4.8 | 11.3 | 0.00 | 0.05 | 0.03 | 58 | 1018.7 |
| 20260901191538 | 27 | 91 | 0.0 | 14.5 | 0.00 | 0.05 | 0.03 | 61 | 1018.6 |
| 20260901191036 | 27 | 290 | 4.8 | 14.5 | 0.00 | 0.05 | 0.03 | 60 | 1018.7 |
| 20260901190541 | 27 | 349 | 3.2 | 12.9 | 0.00 | 0.05 | 0.03 | 60 | 1018.7 |
| 20260901190037 | 27 | 330 | 4.8 | 14.5 | 0.00 | 0.05 | 0.03 | 58 | 1018.7 |
| 20260901185537 | 28 | 27 | 6.4 | 12.9 | 0.00 | 0.05 | 0.03 | 59 | 1018.7 |
| 20260901185037 | 28 | 338 | 1.6 | 14.5 | 0.00 | 0.05 | 0.03 | 58 | 1018.8 |
| 20260901184539 | 28 | 7 | 4.8 | 14.5 | 0.00 | 0.05 | 0.03 | 56 | 1018.8 |
| 20260901184036 | 28 | 359 | 1.6 | 11.3 | 0.00 | 0.05 | 0.03 | 58 | 1018.8 |
| 20260901183535 | 28 | 197 | 1.6 | 11.3 | 0.00 | 0.05 | 0.03 | 59 | 1018.8 |
| 20260901183035 | 28 | 87 | 0.0 | 9.7 | 0.00 | 0.05 | 0.03 | 60 | 1018.8 |
| 20260901182534 | 28 | 350 | 1.6 | 11.3 | 0.00 | 0.05 | 0.03 | 58 | 1018.8 |
| 20260901182034 | 28 | 5 | 0.0 | 1.6 | 0.00 | 0.05 | 0.03 | 62 | 1018.9 |
| 20260901181537 | 27 | 1 | 0.0 | 4.8 | 0.00 | 0.05 | 0.03 | 63 | 1018.8 |
| 20260901181033 | 27 | 1 | 1.6 | 4.8 | 0.00 | 0.05 | 0.03 | 59 | 1018.9 |
| 20260901180534 | 28 | 18 | 0.0 | 12.9 | 0.00 | 0.05 | 0.03 | 60 | 1018.9 |
| 20260901180033 | 28 | 29 | 3.2 | 12.9 | 0.00 | 0.05 | 0.03 | 57 | 1018.8 |
| 20260901175531 | 28 | 351 | 1.6 | 9.7 | 0.00 | 0.05 | 0.03 | 56 | 1018.8 |
| 20260901175032 | 28 | 214 | 0.0 | 6.4 | 0.00 | 0.05 | 0.03 | 58 | 1018.9 |
| 20260901174532 | 28 | 1 | 0.0 | 8.0 | 0.00 | 0.05 | 0.03 | 60 | 1018.9 |
| 20260901174031 | 28 | 86 | 0.0 | 9.7 | 0.00 | 0.05 | 0.03 | 60 | 1019.0 |
| 20260901173528 | 28 | 343 | 3.2 | 9.7 | 0.00 | 0.05 | 0.03 | 57 | 1019.1 |
| 20260901173027 | 28 | 284 | 0.0 | 9.7 | 0.00 | 0.05 | 0.03 | 60 | 1019.0 |
| 20260901172526 | 27 | 4 | 3.2 | 9.7 | 0.00 | 0.05 | 0.03 | 60 | 1019.2 |
| 20260901172026 | 27 | 345 | 1.6 | 6.4 | 0.00 | 0.05 | 0.03 | 61 | 1019.2 |
| 20260901171529 | 27 | 20 | 0.0 | 14.5 | 0.00 | 0.05 | 0.03 | 63 | 1019.3 |
| 20260901171025 | 27 | 337 | 6.4 | 16.1 | 0.00 | 0.05 | 0.03 | 62 | 1019.2 |
| 20260901170526 | 27 | 350 | 9.7 | 16.1 | 0.00 | 0.05 | 0.03 | 61 | 1019.3 |
| 20260901170025 | 27 | 53 | 6.4 | 16.1 | 0.00 | 0.05 | 0.03 | 60 | 1019.3 |
| 20260901165524 | 27 | 27 | 6.4 | 17.7 | 0.00 | 0.05 | 0.03 | 61 | 1019.4 |
| 20260901165026 | 27 | 318 | 6.4 | 17.7 | 0.00 | 0.05 | 0.03 | 60 | 1019.5 |
| 20260901164525 | 27 | 38 | 4.8 | 12.9 | 0.00 | 0.05 | 0.03 | 60 | 1019.5 |
| 20260901164024 | 28 | 340 | 1.6 | 11.3 | 0.00 | 0.05 | 0.03 | 59 | 1019.5 |
| 20260901163522 | 27 | 335 | 0.0 | 6.4 | 0.00 | 0.05 | 0.03 | 64 | 1019.6 |
| 20260901163022 | 27 | 340 | 1.6 | 8.0 | 0.00 | 0.05 | 0.03 | 65 | 1019.6 |
| 20260901162522 | 27 | 360 | 3.2 | 11.3 | 0.00 | 0.05 | 0.03 | 63 | 1019.6 |
| 20260901162021 | 26 | 332 | 0.0 | 11.3 | 0.00 | 0.05 | 0.03 | 66 | 1019.6 |
| 20260901161521 | 26 | 273 | 3.2 | 11.3 | 0.00 | 0.05 | 0.03 | 65 | 1019.7 |
| 20260901161020 | 26 | 22 | 4.8 | 14.5 | 0.00 | 0.05 | 0.03 | 64 | 1019.7 |
| 20260901160522 | 26 | 36 | 4.8 | 14.5 | 0.00 | 0.05 | 0.03 | 64 | 1019.8 |
| 20260901160023 | 26 | 342 | 4.8 | 14.5 | 0.00 | 0.05 | 0.03 | 65 | 1019.9 |
| 20260901155519 | 26 | 354 | 3.2 | 8.0 | 0.00 | 0.05 | 0.03 | 64 | 1019.8 |
| 20260901155020 | 26 | 335 | 3.2 | 9.7 | 0.00 | 0.05 | 0.03 | 67 | 1019.8 |
| 20260901154519 | 26 | 344 | 1.6 | 12.9 | 0.00 | 0.05 | 0.03 | 67 | 1019.8 |
| 20260901154022 | 26 | 6 | 3.2 | 12.9 | 0.00 | 0.05 | 0.03 | 65 | 1019.8 |
| 20260901153519 | 27 | 233 | 1.6 | 8.0 | 0.00 | 0.05 | 0.03 | 65 | 1019.8 |
| 20260901153021 | 27 | 305 | 3.2 | 8.0 | 0.00 | 0.05 | 0.03 | 66 | 1019.8 |
| 20260901152517 | 27 | 344 | 0.0 | 3.2 | 0.00 | 0.05 | 0.03 | 70 | 1019.8 |
| 20260901152019 | 26 | 255 | 0.0 | 4.8 | 0.00 | 0.05 | 0.03 | 69 | 1019.8 |
| 20260901151518 | 26 | 353 | 1.6 | 4.8 | 0.00 | 0.05 | 0.03 | 70 | 1019.9 |
| 20260901151016 | 26 | 346 | 0.0 | 4.8 | 0.00 | 0.05 | 0.03 | 71 | 1019.9 |
| 20260901150517 | 26 | 39 | 0.0 | 4.8 | 0.00 | 0.05 | 0.03 | 70 | 1019.9 |
| 20260901150016 | 27 | 352 | 1.6 | 8.0 | 0.00 | 0.05 | 0.03 | 68 | 1019.9 |
| 20260901145516 | 27 | 10 | 0.0 | 8.0 | 0.00 | 0.05 | 0.03 | 70 | 1020.0 |
| 20260901145016 | 27 | 18 | 1.6 | 6.4 | 0.00 | 0.05 | 0.03 | 69 | 1020.1 |
| 20260901144516 | 27 | 105 | 0.0 | 8.0 | 0.00 | 0.05 | 0.03 | 71 | 1020.1 |
| 20260901144015 | 27 | 347 | 1.6 | 8.0 | 0.00 | 0.05 | 0.03 | 70 | 1020.3 |
| 20260901143515 | 27 | 360 | 0.0 | 1.6 | 0.00 | 0.05 | 0.03 | 69 | 1020.1 |
| 20260901143015 | 27 | 359 | 0.0 | 4.8 | 0.00 | 0.05 | 0.03 | 69 | 1020.2 |
| 20260901142515 | 27 | 359 | 0.0 | 3.2 | 0.00 | 0.05 | 0.03 | 68 | 1020.2 |
| 20260901142114 | 28 | 214 | 0.0 | 0.0 | 0.00 | 0.05 | 0.03 | 67 | 1020.2 |
| 20260901141512 | 27 | 214 | 0.0 | 0.0 | 0.00 | 0.05 | 0.03 | 70 | 1020.2 |
| 20260901141012 | 27 | 214 | 0.0 | 0.0 | 0.00 | 0.05 | 0.03 | 68 | 1020.2 |
| 20260901140510 | 27 | 214 | 0.0 | 0.0 | 0.00 | 0.05 | 0.03 | 71 | 1020.0 |
| 20260901140013 | 26 | 214 | 0.0 | 0.0 | 0.00 | 0.05 | 0.03 | 72 | 1020.0 |
| 20260901135511 | 26 | 214 | 0.0 | 0.0 | 0.00 | 0.08 | 0.03 | 73 | 1020.1 |
| 20260901135006 | 25 | 214 | 0.0 | 0.0 | 0.00 | 0.08 | 0.03 | 77 | 1020.1 |
| 20260901134507 | 25 | 214 | 0.0 | 0.0 | 0.00 | 0.08 | 0.03 | 80 | 1020.2 |
| 20260901134005 | 23 | 214 | 0.0 | 0.0 | 0.00 | 0.08 | 0.03 | 84 | 1020.3 |
| 20260901133502 | 23 | 214 | 0.0 | 0.0 | 0.00 | 0.08 | 0.03 | 87 | 1020.3 |
| 20260901133104 | 22 | 214 | 0.0 | 0.0 | 0.00 | 0.08 | 0.03 | 88 | 1020.3 |
| 20260901132559 | 22 | 214 | 0.0 | 0.0 | 0.00 | 0.08 | 0.03 | 90 | 1020.3 |
| 20260901132057 | 22 | 214 | 0.0 | 0.0 | 0.00 | 0.08 | 0.03 | 93 | 1020.2 |
| 20260901131603 | 21 | 214 | 0.0 | 0.0 | 0.00 | 0.08 | 0.03 | 95 | 1020.3 |
| 20260901131054 | 21 | 214 | 0.0 | 0.0 | 0.00 | 0.08 | 0.03 | 96 | 1020.3 |
| 20260901130556 | 20 | 214 | 0.0 | 0.0 | 0.00 | 0.08 | 0.03 | 96 | 1020.3 |
| 20260901130052 | 20 | 214 | 0.0 | 0.0 | 0.00 | 0.08 | 0.03 | 96 | 1020.3 |
| 20260901125552 | 20 | 214 | 0.0 | 0.0 | 0.00 | 0.08 | 0.03 | 96 | 1020.4 |
| 20260901125050 | 20 | 214 | 0.0 | 0.0 | 0.00 | 0.08 | 0.03 | 96 | 1020.4 |
| 20260901124549 | 19 | 214 | 0.0 | 0.0 | 0.00 | 0.08 | 0.03 | 96 | 1020.4 |
| 20260901124047 | 18 | 214 | 0.0 | 0.0 | 0.00 | 0.08 | 0.03 | 96 | 1020.4 |
| 20260901123547 | 18 | 214 | 0.0 | 0.0 | 0.00 | 0.08 | 0.03 | 96 | 1020.4 |
| 20260901123047 | 17 | 214 | 0.0 | 0.0 | 0.00 | 0.08 | 0.03 | 96 | 1020.4 |
| 20260901122545 | 17 | 214 | 0.0 | 0.0 | 0.00 | 0.08 | 0.03 | 96 | 1020.3 |
| 20260901122044 | 16 | 214 | 0.0 | 0.0 | 0.00 | 0.08 | 0.03 | 96 | 1020.3 |
| 20260901121547 | 16 | 214 | 0.0 | 0.0 | 0.00 | 0.08 | 0.03 | 96 | 1020.3 |
| 20260901121042 | 16 | 214 | 0.0 | 0.0 | 0.00 | 0.08 | 0.03 | 96 | 1020.3 |
| 20260901120541 | 16 | 214 | 0.0 | 0.0 | 0.00 | 0.08 | 0.03 | 96 | 1020.3 |
| 20260901120045 | 15 | 214 | 0.0 | 0.0 | 0.00 | 0.08 | 0.03 | 96 | 1020.1 |
| 20260901115541 | 15 | 214 | 0.0 | 0.0 | 0.00 | 0.08 | 0.03 | 96 | 1020.1 |
| 20260901115041 | 15 | 214 | 0.0 | 0.0 | 0.00 | 0.08 | 0.03 | 96 | 1020.1 |
| 20260901114544 | 15 | 214 | 0.0 | 0.0 | 0.00 | 0.08 | 0.03 | 96 | 1020.0 |
| 20260901114042 | 15 | 214 | 0.0 | 0.0 | 0.00 | 0.08 | 0.03 | 96 | 1019.9 |
| 20260901113544 | 15 | 214 | 0.0 | 0.0 | 0.00 | 0.08 | 0.03 | 96 | 1019.8 |
| 20260901113043 | 15 | 214 | 0.0 | 0.0 | 0.00 | 0.08 | 0.03 | 96 | 1019.8 |
| 20260901112540 | 15 | 214 | 0.0 | 0.0 | 0.00 | 0.08 | 0.03 | 96 | 1019.7 |
| 20260901112043 | 15 | 214 | 0.0 | 0.0 | 0.00 | 0.08 | 0.03 | 96 | 1019.6 |
| 20260901111539 | 15 | 214 | 0.0 | 0.0 | 0.00 | 0.08 | 0.03 | 96 | 1019.5 |
| 20260901111038 | 15 | 214 | 0.0 | 0.0 | 0.00 | 0.08 | 0.03 | 96 | 1019.5 |
| 20260901110541 | 15 | 214 | 0.0 | 0.0 | 0.00 | 0.08 | 0.03 | 96 | 1019.5 |
| 20260901110037 | 15 | 214 | 0.0 | 0.0 | 0.00 | 0.08 | 0.03 | 96 | 1019.4 |
| 20260901105538 | 15 | 214 | 0.0 | 0.0 | 0.00 | 0.08 | 0.03 | 96 | 1019.4 |
| 20260901105041 | 15 | 214 | 0.0 | 0.0 | 0.00 | 0.08 | 0.03 | 96 | 1019.3 |
| 20260901104537 | 15 | 214 | 0.0 | 0.0 | 0.00 | 0.08 | 0.03 | 96 | 1019.3 |
| 20260901104037 | 15 | 214 | 0.0 | 0.0 | 0.00 | 0.08 | 0.03 | 96 | 1019.3 |
| 20260901103537 | 15 | 214 | 0.0 | 0.0 | 0.00 | 0.08 | 0.03 | 96 | 1019.3 |
| 20260901103040 | 15 | 214 | 0.0 | 0.0 | 0.00 | 0.08 | 0.03 | 96 | 1019.2 |
| 20260901102536 | 15 | 214 | 0.0 | 0.0 | 0.00 | 0.08 | 0.03 | 96 | 1019.1 |
| 20260901102036 | 15 | 214 | 0.0 | 0.0 | 0.00 | 0.08 | 0.03 | 96 | 1019.0 |
| 20260901101536 | 15 | 214 | 0.0 | 0.0 | 0.00 | 0.08 | 0.03 | 96 | 1019.0 |
| 20260901101036 | 15 | 214 | 0.0 | 0.0 | 0.00 | 0.08 | 0.03 | 96 | 1019.0 |
| 20260901100535 | 15 | 214 | 0.0 | 0.0 | 0.00 | 0.08 | 0.03 | 96 | 1019.1 |
| 20260901100035 | 15 | 214 | 0.0 | 0.0 | 0.00 | 0.08 | 0.03 | 96 | 1019.0 |
| 20260901095535 | 15 | 214 | 0.0 | 0.0 | 0.00 | 0.08 | 0.03 | 96 | 1019.1 |
| 20260901095035 | 15 | 214 | 0.0 | 0.0 | 0.00 | 0.08 | 0.03 | 96 | 1019.0 |
| 20260901094535 | 15 | 214 | 0.0 | 0.0 | 0.00 | 0.08 | 0.03 | 96 | 1019.0 |
| 20260901094036 | 15 | 214 | 0.0 | 0.0 | 0.00 | 0.08 | 0.03 | 96 | 1019.0 |
| 20260901093536 | 15 | 214 | 0.0 | 0.0 | 0.00 | 0.08 | 0.03 | 96 | 1019.1 |
| 20260901093034 | 16 | 214 | 0.0 | 0.0 | 0.00 | 0.08 | 0.03 | 96 | 1019.1 |
| 20260901092532 | 16 | 214 | 0.0 | 0.0 | 0.00 | 0.08 | 0.03 | 96 | 1019.0 |
| 20260901092032 | 16 | 214 | 0.0 | 0.0 | 0.00 | 0.08 | 0.03 | 96 | 1019.0 |
| 20260901091532 | 16 | 214 | 0.0 | 0.0 | 0.00 | 0.08 | 0.03 | 96 | 1019.0 |
| 20260901091035 | 16 | 214 | 0.0 | 0.0 | 0.03 | 0.08 | 0.03 | 96 | 1019.1 |
| 20260901090531 | 16 | 214 | 0.0 | 0.0 | 0.03 | 0.08 | 0.03 | 96 | 1019.0 |
| 20260901090031 | 16 | 214 | 0.0 | 0.0 | 0.03 | 0.08 | 0.03 | 96 | 1019.0 |
| 20260901085531 | 16 | 214 | 0.0 | 0.0 | 0.03 | 0.08 | 0.03 | 96 | 1019.1 |
| 20260901085031 | 16 | 214 | 0.0 | 0.0 | 0.03 | 0.08 | 0.03 | 96 | 1019.0 |
| 20260901084531 | 16 | 214 | 0.0 | 0.0 | 0.03 | 0.08 | 0.03 | 96 | 1019.0 |
| 20260901084033 | 16 | 214 | 0.0 | 0.0 | 0.03 | 0.08 | 0.03 | 96 | 1019.0 |
| 20260901083530 | 16 | 214 | 0.0 | 0.0 | 0.03 | 0.08 | 0.03 | 96 | 1019.0 |
| 20260901083029 | 16 | 214 | 0.0 | 0.0 | 0.03 | 0.08 | 0.03 | 96 | 1019.0 |
| 20260901082528 | 16 | 214 | 0.0 | 0.0 | 0.03 | 0.08 | 0.03 | 96 | 1019.0 |
| 20260901082028 | 16 | 214 | 0.0 | 0.0 | 0.03 | 0.08 | 0.03 | 96 | 1018.9 |
| 20260901081528 | 16 | 214 | 0.0 | 0.0 | 0.03 | 0.08 | 0.03 | 96 | 1019.0 |
| 20260901081027 | 16 | 214 | 0.0 | 0.0 | 0.00 | 0.05 | 0.00 | 96 | 1019.0 |
| 20260901080526 | 16 | 214 | 0.0 | 0.0 | 0.00 | 0.05 | 0.00 | 96 | 1019.0 |
| 20260901080026 | 16 | 214 | 0.0 | 0.0 | 0.00 | 0.05 | 0.00 | 96 | 1019.1 |
| 20260901075525 | 16 | 214 | 0.0 | 0.0 | 0.00 | 0.05 | 0.00 | 96 | 1019.2 |
| 20260901075024 | 16 | 214 | 0.0 | 0.0 | 0.00 | 0.05 | 0.00 | 96 | 1019.2 |
| 20260901074525 | 16 | 214 | 0.0 | 0.0 | 0.00 | 0.05 | 0.00 | 96 | 1019.2 |
| 20260901074024 | 16 | 214 | 0.0 | 0.0 | 0.00 | 0.05 | 0.00 | 96 | 1019.2 |
| 20260901073523 | 16 | 214 | 0.0 | 0.0 | 0.00 | 0.05 | 0.00 | 96 | 1019.2 |
| 20260901073024 | 16 | 214 | 0.0 | 0.0 | 0.00 | 0.05 | 0.00 | 96 | 1019.2 |
| 20260901072526 | 16 | 214 | 0.0 | 0.0 | 0.00 | 0.05 | 0.00 | 96 | 1019.4 |
| 20260901072024 | 16 | 214 | 0.0 | 0.0 | 0.00 | 0.05 | 0.00 | 96 | 1019.4 |
| 20260901071523 | 16 | 214 | 0.0 | 0.0 | 0.00 | 0.05 | 0.00 | 96 | 1019.4 |
| 20260901071022 | 16 | 214 | 0.0 | 0.0 | 0.00 | 0.05 | 0.00 | 96 | 1019.4 |
| 20260901070520 | 16 | 214 | 0.0 | 0.0 | 0.00 | 0.05 | 0.00 | 96 | 1019.4 |
| 20260901070025 | 16 | 214 | 0.0 | 0.0 | 0.00 | 0.05 | 0.00 | 96 | 1019.5 |
| 20260901065520 | 16 | 214 | 0.0 | 0.0 | 0.00 | 0.05 | 0.00 | 96 | 1019.5 |
| 20260901065025 | 16 | 214 | 0.0 | 0.0 | 0.00 | 0.05 | 0.00 | 96 | 1019.6 |
| 20260901064533 | 16 | 214 | 0.0 | 0.0 | 0.00 | 0.05 | 0.00 | 96 | 1019.6 |
| 20260901064019 | 16 | 214 | 0.0 | 0.0 | 0.00 | 0.05 | 0.00 | 96 | 1019.7 |
| 20260901063518 | 16 | 214 | 0.0 | 0.0 | 0.00 | 0.05 | 0.00 | 96 | 1019.8 |
| 20260901063018 | 16 | 214 | 0.0 | 0.0 | 0.00 | 0.05 | 0.00 | 96 | 1019.8 |
| 20260901062519 | 17 | 214 | 0.0 | 0.0 | 0.00 | 0.05 | 0.00 | 96 | 1019.8 |
| 20260901062020 | 16 | 214 | 0.0 | 0.0 | 0.00 | 0.05 | 0.00 | 96 | 1019.8 |
| 20260901061517 | 16 | 214 | 0.0 | 0.0 | 0.00 | 0.05 | 0.00 | 96 | 1019.8 |
| 20260901061016 | 17 | 214 | 0.0 | 0.0 | 0.00 | 0.05 | 0.00 | 96 | 1019.9 |
| 20260901060516 | 17 | 214 | 0.0 | 0.0 | 0.00 | 0.05 | 0.00 | 96 | 1019.8 |
| 20260901060016 | 17 | 214 | 0.0 | 0.0 | 0.00 | 0.05 | 0.00 | 96 | 1019.9 |
| 20260901055515 | 17 | 214 | 0.0 | 0.0 | 0.00 | 0.05 | 0.00 | 96 | 1019.8 |
| 20260901055016 | 17 | 214 | 0.0 | 0.0 | 0.00 | 0.05 | 0.00 | 96 | 1019.9 |
| 20260901054514 | 17 | 214 | 0.0 | 0.0 | 0.00 | 0.05 | 0.00 | 96 | 1019.9 |
| 20260901054014 | 17 | 214 | 0.0 | 0.0 | 0.00 | 0.05 | 0.00 | 96 | 1020.0 |
| 20260901053514 | 17 | 214 | 0.0 | 0.0 | 0.00 | 0.05 | 0.00 | 96 | 1020.0 |
| 20260901053013 | 17 | 214 | 0.0 | 0.0 | 0.00 | 0.05 | 0.00 | 96 | 1020.0 |
| 20260901052512 | 17 | 214 | 0.0 | 0.0 | 0.00 | 0.05 | 0.00 | 96 | 1020.0 |
| 20260901052012 | 17 | 214 | 0.0 | 0.0 | 0.00 | 0.05 | 0.00 | 96 | 1019.9 |
| 20260901051512 | 17 | 214 | 0.0 | 0.0 | 0.00 | 0.05 | 0.00 | 96 | 1019.9 |
| 20260901051012 | 17 | 214 | 0.0 | 0.0 | 0.00 | 0.05 | 0.00 | 96 | 1020.0 |
| 20260901050511 | 17 | 214 | 0.0 | 0.0 | 0.00 | 0.05 | 0.00 | 96 | 1019.9 |
| 20260901050010 | 17 | 214 | 0.0 | 0.0 | 0.00 | 0.05 | 0.00 | 96 | 1019.9 |
| 20260901045509 | 17 | 214 | 0.0 | 0.0 | 0.00 | 0.05 | 0.00 | 96 | 1020.0 |
| 20260901045011 | 17 | 214 | 0.0 | 0.0 | 0.00 | 0.05 | 0.00 | 96 | 1020.0 |
| 20260901044509 | 17 | 214 | 0.0 | 0.0 | 0.00 | 0.05 | 0.00 | 96 | 1020.0 |
| 20260901044009 | 17 | 214 | 0.0 | 0.0 | 0.00 | 0.05 | 0.00 | 96 | 1019.9 |
| 20260901043509 | 17 | 214 | 0.0 | 0.0 | 0.00 | 0.05 | 0.00 | 96 | 1019.9 |
| 20260901043009 | 17 | 214 | 0.0 | 0.0 | 0.00 | 0.05 | 0.00 | 96 | 1019.9 |
| 20260901042507 | 17 | 214 | 0.0 | 0.0 | 0.00 | 0.05 | 0.00 | 96 | 1019.9 |
| 20260901042006 | 17 | 214 | 0.0 | 0.0 | 0.00 | 0.05 | 0.00 | 96 | 1019.7 |
| 20260901041506 | 17 | 214 | 0.0 | 0.0 | 0.00 | 0.05 | 0.00 | 96 | 1019.7 |
| 20260901041005 | 17 | 214 | 0.0 | 0.0 | 0.00 | 0.05 | 0.00 | 96 | 1019.7 |
| 20260901040504 | 17 | 214 | 0.0 | 0.0 | 0.00 | 0.05 | 0.00 | 96 | 1019.8 |
| 20260901040110 | 17 | 214 | 0.0 | 0.0 | 0.00 | 0.05 | 0.00 | 96 | 1019.7 |
| 20260901035503 | 18 | 214 | 0.0 | 0.0 | 0.00 | 0.05 | 0.05 | 96 | 1019.7 |
| 20260901035002 | 18 | 214 | 0.0 | 0.0 | 0.00 | 0.05 | 0.05 | 96 | 1019.8 |
| 20260901034502 | 18 | 214 | 0.0 | 0.0 | 0.00 | 0.05 | 0.05 | 96 | 1019.7 |
| 20260901034001 | 18 | 214 | 0.0 | 0.0 | 0.00 | 0.05 | 0.05 | 96 | 1019.7 |
| 20260901033502 | 18 | 214 | 0.0 | 0.0 | 0.00 | 0.05 | 0.05 | 96 | 1019.7 |
| 20260901033002 | 18 | 214 | 0.0 | 0.0 | 0.00 | 0.05 | 0.05 | 96 | 1019.8 |
| 20260901032503 | 18 | 214 | 0.0 | 0.0 | 0.00 | 0.05 | 0.05 | 96 | 1019.7 |
| 20260901032004 | 18 | 214 | 0.0 | 0.0 | 0.00 | 0.05 | 0.05 | 96 | 1019.8 |
| 20260901031503 | 18 | 214 | 0.0 | 0.0 | 0.00 | 0.05 | 0.05 | 96 | 1019.7 |
| 20260901031100 | 18 | 214 | 0.0 | 0.0 | 0.00 | 0.05 | 0.05 | 96 | 1019.7 |
| 20260901030500 | 18 | 214 | 0.0 | 0.0 | 0.00 | 0.05 | 0.05 | 96 | 1019.7 |
| 20260901030001 | 18 | 214 | 0.0 | 0.0 | 0.00 | 0.05 | 0.05 | 96 | 1019.7 |
| 20260901025601 | 18 | 214 | 0.0 | 0.0 | 0.00 | 0.05 | 0.05 | 96 | 1019.8 |
| 20260901025104 | 18 | 214 | 0.0 | 0.0 | 0.00 | 0.05 | 0.05 | 96 | 1019.7 |
| 20260901024600 | 18 | 214 | 0.0 | 0.0 | 0.00 | 0.05 | 0.05 | 96 | 1019.8 |
| 20260901024100 | 18 | 145 | 0.0 | 0.0 | 0.00 | 0.05 | 0.05 | 96 | 1019.7 |
| 20260901023600 | 18 | 145 | 0.0 | 0.0 | 0.00 | 0.05 | 0.05 | 96 | 1019.6 |
| 20260901023100 | 18 | 145 | 0.0 | 0.0 | 0.00 | 0.05 | 0.05 | 96 | 1019.7 |
| 20260901022600 | 18 | 145 | 0.0 | 0.0 | 0.00 | 0.05 | 0.05 | 96 | 1019.6 |
| 20260901022059 | 18 | 145 | 0.0 | 0.0 | 0.00 | 0.05 | 0.05 | 96 | 1019.6 |
| 20260901021559 | 18 | 145 | 0.0 | 0.0 | 0.00 | 0.05 | 0.05 | 96 | 1019.6 |
| 20260901021059 | 19 | 145 | 0.0 | 0.0 | 0.00 | 0.05 | 0.05 | 96 | 1019.6 |
| 20260901020557 | 19 | 145 | 0.0 | 0.0 | 0.00 | 0.05 | 0.05 | 96 | 1019.6 |
| 20260901020059 | 19 | 145 | 0.0 | 0.0 | 0.00 | 0.05 | 0.05 | 96 | 1019.6 |
| 20260901015557 | 19 | 145 | 0.0 | 0.0 | 0.00 | 0.05 | 0.05 | 96 | 1019.6 |
| 20260901015058 | 19 | 145 | 0.0 | 0.0 | 0.00 | 0.05 | 0.05 | 96 | 1019.5 |
| 20260901014557 | 19 | 145 | 0.0 | 0.0 | 0.00 | 0.05 | 0.05 | 95 | 1019.5 |
| 20260901014056 | 19 | 145 | 0.0 | 0.0 | 0.00 | 0.05 | 0.05 | 95 | 1019.4 |
| 20260901013557 | 19 | 145 | 0.0 | 0.0 | 0.00 | 0.05 | 0.05 | 95 | 1019.4 |
| 20260901013101 | 19 | 145 | 0.0 | 0.0 | 0.00 | 0.05 | 0.05 | 95 | 1019.4 |
| 20260901012555 | 19 | 145 | 0.0 | 0.0 | 0.00 | 0.05 | 0.05 | 95 | 1019.3 |
| 20260901012055 | 19 | 145 | 0.0 | 0.0 | 0.00 | 0.05 | 0.05 | 95 | 1019.3 |
| 20260901011557 | 19 | 145 | 0.0 | 0.0 | 0.00 | 0.05 | 0.05 | 95 | 1019.3 |
| 20260901011056 | 19 | 145 | 0.0 | 0.0 | 0.00 | 0.05 | 0.05 | 95 | 1019.3 |
| 20260901010555 | 19 | 145 | 0.0 | 0.0 | 0.00 | 0.05 | 0.05 | 95 | 1019.3 |
| 20260901010058 | 19 | 145 | 0.0 | 0.0 | 0.00 | 0.05 | 0.05 | 95 | 1019.2 |
| 20260901005554 | 19 | 145 | 0.0 | 0.0 | 0.00 | 0.05 | 0.05 | 95 | 1019.1 |
| 20260901005054 | 19 | 145 | 0.0 | 0.0 | 0.00 | 0.05 | 0.05 | 95 | 1019.0 |
| 20260901004555 | 20 | 145 | 0.0 | 1.6 | 0.00 | 0.05 | 0.05 | 95 | 1018.9 |
| 20260901004053 | 20 | 145 | 0.0 | 1.6 | 0.00 | 0.05 | 0.05 | 95 | 1019.0 |
| 20260901003553 | 20 | 145 | 0.0 | 1.6 | 0.00 | 0.05 | 0.05 | 95 | 1018.9 |
| 20260901003053 | 20 | 145 | 0.0 | 1.6 | 0.00 | 0.05 | 0.05 | 94 | 1018.9 |
| 20260901002553 | 20 | 114 | 0.0 | 1.6 | 0.00 | 0.05 | 0.05 | 94 | 1018.8 |
| 20260901002057 | 20 | 114 | 0.0 | 1.6 | 0.00 | 0.05 | 0.05 | 94 | 1018.8 |
| 20260901001555 | 20 | 114 | 0.0 | 1.6 | 0.00 | 0.05 | 0.05 | 94 | 1018.7 |
| 20260901001052 | 20 | 143 | 0.0 | 3.2 | 0.00 | 0.05 | 0.05 | 94 | 1018.7 |
| 20260901000551 | 20 | 141 | 0.0 | 1.6 | 0.00 | 0.05 | 0.05 | 93 | 1018.7 |
| 20260901000059 | 20 | 121 | 0.0 | 0.0 | 0.00 | 0.05 | 0.05 | 93 | 1018.6 |
| 20260831235552 | 20 | 121 | 0.0 | 0.0 | 0.00 | 0.05 | 0.05 | 93 | 1018.6 |
| 20260831235052 | 21 | 122 | 0.0 | 1.6 | 0.00 | 0.05 | 0.05 | 93 | 1018.6 |
| 20260831234551 | 21 | 121 | 0.0 | 1.6 | 0.03 | 0.05 | 0.05 | 93 | 1018.6 |
| 20260831234053 | 21 | 204 | 0.0 | 0.0 | 0.03 | 0.05 | 0.05 | 93 | 1018.7 |
| 20260831233550 | 21 | 204 | 0.0 | 0.0 | 0.03 | 0.05 | 0.05 | 93 | 1018.7 |